STARLINK-1358, 45566

Orbit data source: Space-Track

STARLINK-1358, 45566 is a payload satellite owned by SpaceX/Seattle (US) in LEO that was launched on Wed, 22 Apr 2020 UTC via an FALCON 9 launch vehicle from the Air Force Eastern Test Range (AFETR). Payloads include a variety of satellites, spacecraft, and rockets equipped with specific instruments for various scientific and technological missions. These include communications satellites like Starlink; space stations such as the ISS; scientific satellites like the Hubble; Earth observation satellites from companies like Planet Labs, Umbra, and HawkEye 360; GPS; miniature CubeSats for education and research; and military/defense satellites.

Loading next visibility...
STARLINK-1358 details
Identifier
45566, 2020-025AM
Orbit
LEO
Last TLE update5 hours ago
Origin
Flag of USSpaceX/Seattle (US)
ManufacturerSpaceX/Seattle
MissionOperational Commercial Communications
Bus & MotorSTARLINK, Unknown motor
Mass260 kg wet, ~248 kg dry
Launch date (UTC)
2020-04-22 (5 years ago)
Launch vehicle
FALCON 9
Launch site
Air Force Eastern Test Range (AFETR)
Object type
Payload
Rocket body
Debris
Shape & HBRBox + 1 Pan, 8.86 m
Radar Cross Section13.562 m², Large (>1 m²)

Expand to show TLE details & history

TLE from 5 hours ago
0 STARLINK-1358
1 45566U 20025AM  24361.25001157  .01207579  00000-0  67402-1 0  9993
2 45566  53.0526 254.5323 0001370  93.3801  14.5983 15.10403714258683
Epoch: 2024-12-26T06:00Z
Definitive object data (Epoch: 2024-12-26T06:00:00.999Z)
Latitude49.62507°
Longitude-172.30586°
Altitude539.783 km
Speed7.599 km/s
True Right ascension00h 51m 43s
True Declination49° 26' 60"
Sunlit
Object was in partial shadow at TLE epoch
Visualization TLE readout
Latitude9.15199°
Longitude-118.5726°
Altitude533.483 km
Speed7.598 km/s
Apparent Right ascension02h 02m 46s
Apparent Declination-19° 39' 16"
Sunlit
Object is in full shadow
Visualization observer readout
Local Sidereal Time10:23:07
Azimuth276.617° WNW
Elevation-39.126°
Doppler factor1
Orbital elements
Apogee altitude536.186 km
Perigee altitude534.292 km
Semi-major axis6,913.376 km
Eccentricity0.000137
Inclination53.0526°
RAAN254.5323°
Arg. of periapsis93.3801°
True anomaly14.60226°
Mean anomaly14.5983°
Eccentric anomaly14.60028°
Mean motion3.77579 °/min
BSTAR0.067402
Orbital period95.34 mins
Loading maneuver chart data...
Loading historical data...
Loading historical data...
Loading historical data...
Loading historical data...
Loading historical data...
Loading historical data...
Loading historical data...

STARLINK-1358 Visibility forecast

Observer location: undefined°, undefined

Span
Click to sort rows by Start time (UTC) header in descending order
Start Az.
Max El. time (UTC)
Max El. Az.
Max El.
End time (UTC)
End Az.
6 mins2024-12-26 20:00:50.394Z232.095° WSW2024-12-26 20:02:50.394Z307.664° NW44.928°2024-12-26 20:06:50.394Z49.577° ENE
4 mins2024-12-26 21:40:50.394Z307.015° NW2024-12-26 21:42:50.394Z346.279° N18.733°2024-12-26 21:44:50.394Z20.444° NNE
4 mins2024-12-27 01:01:50.394Z352.929° N2024-12-27 01:02:50.394Z12.207° NNE18.951°2024-12-27 01:05:50.394Z66.344° ENE
5 mins2024-12-27 02:40:50.394Z310.234° NW2024-12-27 02:42:50.394Z345.631° N44.998°2024-12-27 02:45:50.394Z130.622° SE
|